Time,TemperatureF,DewpointF,PressureIn,WindDirection,WindDirectionDegrees,WindSpeedMPH,WindSpeedGustMPH,Humidity,HourlyPrecipIn,Conditions,Clouds,dailyrainin,SoftwareType,DateUTC
2013-06-30 00:01:00,66.8,56.3,29.80,NNE,12,0.0,0.0,69,0.00,,,0.00,WeatherCatV1.15B25,2013-06-30 05:01:00,
2013-06-30 00:06:00,66.4,55.9,29.80,NNE,12,0.0,0.0,69,0.00,,,0.00,WeatherCatV1.15B25,2013-06-30 05:06:00,
2013-06-30 00:11:00,66.3,55.8,29.80,NNE,12,0.0,0.0,69,0.00,,,0.00,WeatherCatV1.15B25,2013-06-30 05:11:00,
2013-06-30 00:16:00,66.3,55.8,29.80,NNE,12,0.0,0.0,69,0.00,,,0.00,WeatherCatV1.15B25,2013-06-30 05:16:00,
2013-06-30 00:21:00,66.3,56.2,29.80,NNE,12,0.0,0.0,70,0.00,,,0.00,WeatherCatV1.15B25,2013-06-30 05:21:00,
2013-06-30 00:26:00,66.1,55.6,29.80,NNE,12,0.0,0.0,69,0.00,,,0.00,WeatherCatV1.15B25,2013-06-30 05:26:00,
2013-06-30 00:31:00,66.1,55.6,29.80,NNE,12,0.0,0.0,69,0.00,,,0.00,WeatherCatV1.15B25,2013-06-30 05:31:00,
2013-06-30 00:36:00,66.1,55.6,29.80,NNE,12,0.0,0.0,69,0.00,,,0.00,WeatherCatV1.15B25,2013-06-30 05:36:00,
2013-06-30 00:41:00,66.0,55.5,29.80,NNE,12,0.0,0.0,69,0.00,,,0.00,WeatherCatV1.15B25,2013-06-30 05:41:00,
2013-06-30 00:46:00,65.8,55.7,29.80,NNE,12,0.0,0.0,70,0.00,,,0.00,WeatherCatV1.15B25,2013-06-30 05:46:00,
2013-06-30 00:51:00,65.6,55.5,29.80,NNE,12,0.0,0.0,70,0.00,,,0.00,WeatherCatV1.15B25,2013-06-30 05:51:00,
2013-06-30 00:56:00,65.5,55.4,29.80,NNE,12,0.0,0.0,70,0.00,,,0.00,WeatherCatV1.15B25,2013-06-30 05:56:00,
2013-06-30 01:01:00,65.3,55.6,29.80,NNE,12,0.0,0.0,71,0.00,,,0.00,WeatherCatV1.15B25,2013-06-30 06:01:00,
2013-06-30 01:06:00,65.2,55.6,29.80,NNE,12,0.0,0.0,71,0.00,,,0.00,WeatherCatV1.15B25,2013-06-30 06:06:00,
2013-06-30 01:11:00,65.0,55.7,29.80,NNE,12,0.0,0.0,72,0.00,,,0.00,WeatherCatV1.15B25,2013-06-30 06:11:00,
2013-06-30 01:16:00,64.8,55.9,29.81,NNE,12,0.0,0.0,73,0.00,,,0.00,WeatherCatV1.15B25,2013-06-30 06:16:00,
2013-06-30 01:21:00,64.7,56.2,29.81,NNE,12,0.0,1.0,74,0.00,,,0.00,WeatherCatV1.15B25,2013-06-30 06:21:00,
2013-06-30 01:26:00,64.7,56.2,29.81,NNE,12,0.0,3.0,74,0.00,,,0.00,WeatherCatV1.15B25,2013-06-30 06:26:00,
2013-06-30 01:31:00,64.7,55.8,29.82,NNE,12,0.0,0.0,73,0.00,,,0.00,WeatherCatV1.15B25,2013-06-30 06:31:00,
2013-06-30 01:36:00,64.7,55.8,29.82,NNE,12,0.0,0.0,73,0.00,,,0.00,WeatherCatV1.15B25,2013-06-30 06:36:00,
2013-06-30 01:41:00,64.5,56.4,29.82,NNE,12,0.0,0.0,75,0.00,,,0.00,WeatherCatV1.15B25,2013-06-30 06:41:00,
2013-06-30 01:46:00,64.3,56.2,29.82,NNE,12,0.0,0.0,75,0.00,,,0.00,WeatherCatV1.15B25,2013-06-30 06:46:00,
2013-06-30 01:51:00,64.0,56.3,29.82,NNE,12,0.0,0.0,76,0.00,,,0.00,WeatherCatV1.15B25,2013-06-30 06:51:00,
2013-06-30 01:56:00,63.9,56.2,29.82,NNE,12,0.0,0.0,76,0.00,,,0.00,WeatherCatV1.15B25,2013-06-30 06:56:00,
2013-06-30 02:01:00,63.7,56.0,29.82,NNE,12,0.0,0.0,76,0.00,,,0.00,WeatherCatV1.15B25,2013-06-30 07:01:00,
2013-06-30 02:06:00,63.7,56.0,29.82,NNE,12,0.0,0.0,76,0.00,,,0.00,WeatherCatV1.15B25,2013-06-30 07:06:00,
2013-06-30 02:11:00,63.5,56.2,29.82,NNE,12,0.0,0.0,77,0.00,,,0.00,WeatherCatV1.15B25,2013-06-30 07:11:00,
2013-06-30 02:16:00,63.5,56.2,29.82,NNE,12,0.0,0.0,77,0.00,,,0.00,WeatherCatV1.15B25,2013-06-30 07:16:00,
2013-06-30 02:21:00,63.4,56.4,29.82,NNE,12,0.0,0.0,78,0.00,,,0.00,WeatherCatV1.15B25,2013-06-30 07:21:00,
2013-06-30 02:27:00,63.2,56.2,29.82,NNE,12,0.0,0.0,78,0.00,,,0.00,WeatherCatV1.15B25,2013-06-30 07:27:00,
2013-06-30 02:31:00,63.1,56.5,29.82,NNE,12,0.0,0.0,79,0.00,,,0.00,WeatherCatV1.15B25,2013-06-30 07:31:00,
2013-06-30 02:36:00,63.1,56.8,29.82,NNE,12,0.0,0.0,80,0.00,,,0.00,WeatherCatV1.15B25,2013-06-30 07:36:00,
2013-06-30 02:42:00,63.1,56.8,29.82,NNE,12,0.0,0.0,80,0.00,,,0.00,WeatherCatV1.15B25,2013-06-30 07:42:00,
2013-06-30 02:47:00,63.1,56.8,29.83,NNE,12,0.0,0.0,80,0.00,,,0.00,WeatherCatV1.15B25,2013-06-30 07:47:00,
2013-06-30 02:52:00,63.1,56.8,29.83,NNE,12,0.0,0.0,80,0.00,,,0.00,WeatherCatV1.15B25,2013-06-30 07:52:00,
2013-06-30 02:57:00,63.1,56.8,29.83,NNE,12,0.0,0.0,80,0.00,,,0.00,WeatherCatV1.15B25,2013-06-30 07:57:00,
2013-06-30 03:02:00,63.1,57.2,29.83,NNE,12,0.0,0.0,81,0.00,,,0.00,WeatherCatV1.15B25,2013-06-30 08:02:00,
2013-06-30 03:07:00,63.1,56.8,29.83,NNE,12,0.0,0.0,80,0.00,,,0.00,WeatherCatV1.15B25,2013-06-30 08:07:00,
2013-06-30 03:12:00,63.1,56.8,29.83,NNE,12,0.0,0.0,80,0.00,,,0.00,WeatherCatV1.15B25,2013-06-30 08:12:00,
2013-06-30 03:17:00,63.1,57.2,29.83,NNE,12,0.0,0.0,81,0.00,,,0.00,WeatherCatV1.15B25,2013-06-30 08:17:00,
2013-06-30 03:22:00,62.9,57.0,29.83,NNE,12,0.0,0.0,81,0.00,,,0.00,WeatherCatV1.15B25,2013-06-30 08:22:00,
2013-06-30 03:27:00,62.7,56.8,29.83,NNE,12,0.0,0.0,81,0.00,,,0.00,WeatherCatV1.15B25,2013-06-30 08:27:00,
2013-06-30 03:32:00,62.6,56.7,29.83,NNE,12,0.0,0.0,81,0.00,,,0.00,WeatherCatV1.15B25,2013-06-30 08:32:00,
2013-06-30 03:37:00,62.4,56.8,29.83,NNE,12,0.0,0.0,82,0.00,,,0.00,WeatherCatV1.15B25,2013-06-30 08:37:00,
2013-06-30 03:42:00,62.4,56.8,29.83,NNE,12,0.0,0.0,82,0.00,,,0.00,WeatherCatV1.15B25,2013-06-30 08:42:00,
2013-06-30 03:47:00,62.3,57.1,29.83,NNE,12,0.0,0.0,83,0.00,,,0.00,WeatherCatV1.15B25,2013-06-30 08:47:00,
2013-06-30 03:52:00,62.1,56.9,29.83,NNE,12,0.0,0.0,83,0.00,,,0.00,WeatherCatV1.15B25,2013-06-30 08:52:00,
2013-06-30 03:57:00,62.0,56.8,29.83,NNE,12,0.0,0.0,83,0.00,,,0.00,WeatherCatV1.15B25,2013-06-30 08:57:00,
2013-06-30 04:02:00,62.0,56.8,29.83,NNE,12,0.0,0.0,83,0.00,,,0.00,WeatherCatV1.15B25,2013-06-30 09:02:00,
2013-06-30 04:07:00,61.8,56.9,29.83,NNE,12,0.0,0.0,84,0.00,,,0.00,WeatherCatV1.15B25,2013-06-30 09:07:00,
2013-06-30 04:12:00,61.6,56.7,29.83,NNE,12,0.0,0.0,84,0.00,,,0.00,WeatherCatV1.15B25,2013-06-30 09:12:00,
2013-06-30 04:17:00,61.6,56.7,29.84,NNE,12,0.0,0.0,84,0.00,,,0.00,WeatherCatV1.15B25,2013-06-30 09:17:00,
2013-06-30 04:22:00,61.5,56.6,29.84,NNE,12,0.0,0.0,84,0.00,,,0.00,WeatherCatV1.15B25,2013-06-30 09:22:00,
2013-06-30 04:27:00,61.5,56.9,29.84,NNE,12,0.0,0.0,85,0.00,,,0.00,WeatherCatV1.15B25,2013-06-30 09:27:00,
2013-06-30 04:32:00,61.3,56.7,29.84,NNE,12,0.0,0.0,85,0.00,,,0.00,WeatherCatV1.15B25,2013-06-30 09:32:00,
2013-06-30 04:37:00,61.2,57.0,29.84,NNE,12,0.0,0.0,86,0.00,,,0.00,WeatherCatV1.15B25,2013-06-30 09:37:00,
2013-06-30 04:42:00,61.2,57.0,29.84,NNE,12,0.0,0.0,86,0.00,,,0.00,WeatherCatV1.15B25,2013-06-30 09:42:00,
2013-06-30 04:47:00,61.0,56.8,29.84,NNE,12,0.0,0.0,86,0.00,,,0.00,WeatherCatV1.15B25,2013-06-30 09:47:00,
2013-06-30 04:52:00,60.9,56.7,29.84,NNE,12,0.0,0.0,86,0.00,,,0.00,WeatherCatV1.15B25,2013-06-30 09:52:00,
2013-06-30 04:57:00,60.7,56.5,29.84,NNE,12,0.0,0.0,86,0.00,,,0.00,WeatherCatV1.15B25,2013-06-30 09:57:00,
2013-06-30 05:02:00,60.5,56.6,29.84,NNE,12,0.0,0.0,87,0.00,,,0.00,WeatherCatV1.15B25,2013-06-30 10:02:00,
2013-06-30 05:07:00,60.5,56.6,29.84,NNE,12,0.0,0.0,87,0.00,,,0.00,WeatherCatV1.15B25,2013-06-30 10:07:00,
2013-06-30 05:12:00,60.4,56.5,29.84,NNE,12,0.0,0.0,87,0.00,,,0.00,WeatherCatV1.15B25,2013-06-30 10:12:00,
2013-06-30 05:17:00,60.4,56.5,29.85,NNE,12,0.0,0.0,87,0.00,,,0.00,WeatherCatV1.15B25,2013-06-30 10:17:00,
2013-06-30 05:22:00,60.4,56.5,29.85,NNE,12,0.0,0.0,87,0.00,,,0.00,WeatherCatV1.15B25,2013-06-30 10:22:00,
2013-06-30 05:27:00,60.2,56.6,29.85,NNE,12,0.0,0.0,88,0.00,,,0.00,WeatherCatV1.15B25,2013-06-30 10:27:00,
2013-06-30 05:32:00,60.1,56.5,29.85,NNE,12,0.0,0.0,88,0.00,,,0.00,WeatherCatV1.15B25,2013-06-30 10:32:00,
2013-06-30 05:37:00,59.9,56.6,29.85,NNE,12,0.0,0.0,89,0.00,,,0.00,WeatherCatV1.15B25,2013-06-30 10:37:00,
2013-06-30 05:42:00,59.9,56.6,29.85,NNE,12,0.0,0.0,89,0.00,,,0.00,WeatherCatV1.15B25,2013-06-30 10:42:00,
2013-06-30 05:47:00,59.8,56.5,29.85,NNE,12,0.0,0.0,89,0.00,,,0.00,WeatherCatV1.15B25,2013-06-30 10:47:00,
2013-06-30 05:52:00,59.9,57.0,29.85,NNE,12,0.0,0.0,90,0.00,,,0.00,WeatherCatV1.15B25,2013-06-30 10:52:00,
2013-06-30 05:57:00,59.9,56.6,29.85,NNE,12,0.0,0.0,89,0.00,,,0.00,WeatherCatV1.15B25,2013-06-30 10:57:00,
2013-06-30 06:02:00,60.1,56.8,29.86,NNE,12,0.0,0.0,89,0.00,,,0.00,WeatherCatV1.15B25,2013-06-30 11:02:00,
2013-06-30 06:07:00,59.9,56.6,29.86,NNE,12,0.0,0.0,89,0.00,,,0.00,WeatherCatV1.15B25,2013-06-30 11:07:00,
2013-06-30 06:12:00,59.9,56.6,29.86,NNE,12,0.0,0.0,89,0.00,,,0.00,WeatherCatV1.15B25,2013-06-30 11:12:00,
2013-06-30 06:17:00,60.1,56.8,29.86,NNE,12,0.0,0.0,89,0.00,,,0.00,WeatherCatV1.15B25,2013-06-30 11:17:00,
2013-06-30 06:22:00,60.2,56.9,29.86,NNE,12,0.0,0.0,89,0.00,,,0.00,WeatherCatV1.15B25,2013-06-30 11:22:00,
2013-06-30 06:27:00,60.4,57.1,29.86,NNE,12,0.0,0.0,89,0.00,,,0.00,WeatherCatV1.15B25,2013-06-30 11:27:00,
2013-06-30 06:32:00,60.5,57.2,29.87,NNE,12,0.0,0.0,89,0.00,,,0.00,WeatherCatV1.15B25,2013-06-30 11:32:00,
2013-06-30 06:37:00,60.5,57.2,29.87,NNE,12,0.0,0.0,89,0.00,,,0.00,WeatherCatV1.15B25,2013-06-30 11:37:00,
2013-06-30 06:42:00,60.7,57.4,29.87,NNE,12,0.0,0.0,89,0.00,,,0.00,WeatherCatV1.15B25,2013-06-30 11:42:00,
2013-06-30 06:47:00,60.9,57.6,29.87,NNE,12,0.0,0.0,89,0.00,,,0.00,WeatherCatV1.15B25,2013-06-30 11:47:00,
2013-06-30 06:52:00,61.0,57.4,29.87,NNE,12,0.0,0.0,88,0.00,,,0.00,WeatherCatV1.15B25,2013-06-30 11:52:00,
2013-06-30 06:57:00,61.2,57.6,29.87,NNE,12,0.0,0.0,88,0.00,,,0.00,WeatherCatV1.15B25,2013-06-30 11:57:00,
2013-06-30 07:02:00,61.3,57.7,29.87,NNE,12,0.0,0.0,88,0.00,,,0.00,WeatherCatV1.15B25,2013-06-30 12:02:00,
2013-06-30 07:07:00,61.6,58.0,29.87,NNE,12,0.0,0.0,88,0.00,,,0.00,WeatherCatV1.15B25,2013-06-30 12:07:00,
2013-06-30 07:12:00,61.8,57.9,29.87,NNE,12,0.0,0.0,87,0.00,,,0.00,WeatherCatV1.15B25,2013-06-30 12:12:00,
2013-06-30 07:17:00,62.1,58.2,29.87,NNE,12,0.0,0.0,87,0.00,,,0.00,WeatherCatV1.15B25,2013-06-30 12:17:00,
2013-06-30 07:22:00,62.4,58.2,29.87,NNE,12,0.0,0.0,86,0.00,,,0.00,WeatherCatV1.15B25,2013-06-30 12:22:00,
2013-06-30 07:27:00,62.9,58.6,29.87,NNE,12,0.0,1.0,86,0.00,,,0.00,WeatherCatV1.15B25,2013-06-30 12:27:00,
2013-06-30 07:32:00,63.1,58.5,29.88,NNE,12,0.0,1.0,85,0.00,,,0.00,WeatherCatV1.15B25,2013-06-30 12:32:00,
2013-06-30 07:37:00,63.1,58.2,29.88,NNE,12,0.0,0.0,84,0.00,,,0.00,WeatherCatV1.15B25,2013-06-30 12:37:00,
2013-06-30 07:42:00,62.9,58.0,29.88,NNE,12,0.0,0.0,84,0.00,,,0.00,WeatherCatV1.15B25,2013-06-30 12:42:00,
2013-06-30 07:47:00,62.9,58.0,29.88,NNE,12,0.0,0.0,84,0.00,,,0.00,WeatherCatV1.15B25,2013-06-30 12:47:00,
2013-06-30 07:52:00,62.9,58.0,29.88,NNE,12,0.0,0.0,84,0.00,,,0.00,WeatherCatV1.15B25,2013-06-30 12:52:00,
2013-06-30 07:57:00,62.9,58.3,29.88,NNE,12,0.0,0.0,85,0.00,,,0.00,WeatherCatV1.15B25,2013-06-30 12:57:00,
2013-06-30 08:02:00,63.2,58.6,29.89,NNE,12,0.0,0.0,85,0.00,,,0.00,WeatherCatV1.15B25,2013-06-30 13:02:00,
2013-06-30 08:07:00,63.5,58.6,29.89,NNE,12,0.0,1.0,84,0.00,,,0.00,WeatherCatV1.15B25,2013-06-30 13:07:00,
2013-06-30 08:12:00,63.9,59.0,29.89,NNE,12,0.0,0.0,84,0.00,,,0.00,WeatherCatV1.15B25,2013-06-30 13:12:00,
2013-06-30 08:17:00,64.0,58.7,29.90,NNE,12,0.0,0.0,83,0.00,,,0.00,WeatherCatV1.15B25,2013-06-30 13:17:00,
2013-06-30 08:22:00,64.3,59.0,29.90,NNE,12,0.0,0.0,83,0.00,,,0.00,WeatherCatV1.15B25,2013-06-30 13:22:00,
2013-06-30 08:27:00,64.7,59.4,29.90,NNE,12,0.0,0.0,83,0.00,,,0.00,WeatherCatV1.15B25,2013-06-30 13:27:00,
2013-06-30 08:32:00,65.0,59.7,29.90,NNE,12,0.0,0.0,83,0.00,,,0.00,WeatherCatV1.15B25,2013-06-30 13:32:00,
2013-06-30 08:37:00,65.5,59.2,29.90,NNE,12,0.0,0.0,80,0.00,,,0.00,WeatherCatV1.15B25,2013-06-30 13:37:00,
2013-06-30 08:42:00,65.8,59.5,29.90,NNE,12,0.0,0.0,80,0.00,,,0.00,WeatherCatV1.15B25,2013-06-30 13:42:00,
2013-06-30 08:47:00,66.0,59.3,29.90,NNE,12,0.0,0.0,79,0.00,,,0.00,WeatherCatV1.15B25,2013-06-30 13:47:00,
2013-06-30 08:52:00,66.0,58.9,29.90,NNE,12,0.0,0.0,78,0.00,,,0.00,WeatherCatV1.15B25,2013-06-30 13:52:00,
2013-06-30 08:57:00,66.1,59.0,29.90,NNE,12,0.0,0.0,78,0.00,,,0.00,WeatherCatV1.15B25,2013-06-30 13:57:00,
2013-06-30 09:02:00,66.1,58.3,29.91,NNE,12,0.0,1.0,76,0.00,,,0.00,WeatherCatV1.15B25,2013-06-30 14:02:00,
2013-06-30 09:07:00,66.4,58.2,29.91,NNE,12,0.0,0.0,75,0.00,,,0.00,WeatherCatV1.15B25,2013-06-30 14:07:00,
2013-06-30 09:12:00,66.6,57.7,29.91,NNE,12,0.0,3.0,73,0.00,,,0.00,WeatherCatV1.15B25,2013-06-30 14:12:00,
2013-06-30 09:17:00,66.8,57.5,29.91,NNE,12,0.0,3.0,72,0.00,,,0.00,WeatherCatV1.15B25,2013-06-30 14:17:00,
2013-06-30 09:22:00,66.6,56.1,29.91,NE,55,3.0,6.0,69,0.00,,,0.00,WeatherCatV1.15B25,2013-06-30 14:22:00,
2013-06-30 09:27:00,66.4,56.3,29.91,NE,46,2.0,5.0,70,0.00,,,0.00,WeatherCatV1.15B25,2013-06-30 14:27:00,
2013-06-30 09:32:00,66.4,57.1,29.92,NE,39,1.0,4.0,72,0.00,,,0.00,WeatherCatV1.15B25,2013-06-30 14:32:00,
2013-06-30 09:37:00,66.9,56.8,29.92,NE,36,2.0,3.0,70,0.00,,,0.00,WeatherCatV1.15B25,2013-06-30 14:37:00,
2013-06-30 09:42:00,66.9,56.8,29.92,NE,34,2.0,4.0,70,0.00,,,0.00,WeatherCatV1.15B25,2013-06-30 14:42:00,
2013-06-30 09:47:00,66.9,56.8,29.91,NNE,17,1.0,2.0,70,0.00,,,0.00,WeatherCatV1.15B25,2013-06-30 14:47:00,
2013-06-30 09:52:00,67.3,56.8,29.91,NNE,18,1.0,3.0,69,0.00,,,0.00,WeatherCatV1.15B25,2013-06-30 14:52:00,
2013-06-30 09:57:00,67.4,56.9,29.91,NE,51,3.0,9.0,69,0.00,,,0.00,WeatherCatV1.15B25,2013-06-30 14:57:00,
2013-06-30 10:02:00,67.6,57.1,29.90,NE,34,0.0,6.0,69,0.00,,,0.00,WeatherCatV1.15B25,2013-06-30 15:02:00,
2013-06-30 10:07:00,67.9,57.3,29.90,NNE,33,4.0,5.0,69,0.00,,,0.00,WeatherCatV1.15B25,2013-06-30 15:07:00,
2013-06-30 10:12:00,68.3,56.9,29.90,NE,42,5.0,5.0,67,0.00,,,0.00,WeatherCatV1.15B25,2013-06-30 15:12:00,
2013-06-30 10:17:00,68.4,56.6,29.90,NNE,17,1.0,4.0,66,0.00,,,0.00,WeatherCatV1.15B25,2013-06-30 15:17:00,
2013-06-30 10:22:00,68.4,55.7,29.90,NNE,32,7.0,8.0,64,0.00,,,0.00,WeatherCatV1.15B25,2013-06-30 15:22:00,
2013-06-30 10:27:00,68.3,56.5,29.90,NE,45,3.0,6.0,66,0.00,,,0.00,WeatherCatV1.15B25,2013-06-30 15:27:00,
2013-06-30 10:32:00,68.1,56.3,29.91,ENE,58,8.0,9.0,66,0.00,,,0.00,WeatherCatV1.15B25,2013-06-30 15:32:00,
2013-06-30 10:37:00,68.3,56.9,29.91,NNE,32,0.0,5.0,67,0.00,,,0.00,WeatherCatV1.15B25,2013-06-30 15:37:00,
2013-06-30 10:42:00,68.4,57.4,29.91,NE,42,2.0,5.0,68,0.00,,,0.00,WeatherCatV1.15B25,2013-06-30 15:42:00,
2013-06-30 10:47:00,68.8,57.0,29.91,NNE,29,1.0,2.0,66,0.00,,,0.00,WeatherCatV1.15B25,2013-06-30 15:47:00,
2013-06-30 10:52:00,69.1,57.3,29.91,NE,42,0.0,4.0,66,0.00,,,0.00,WeatherCatV1.15B25,2013-06-30 15:52:00,
2013-06-30 10:57:00,69.6,57.3,29.91,North,0,1.0,1.0,65,0.00,,,0.00,WeatherCatV1.15B25,2013-06-30 15:57:00,
2013-06-30 11:02:00,69.8,56.6,29.91,North,5,2.0,4.0,63,0.00,,,0.00,WeatherCatV1.15B25,2013-06-30 16:02:00,
2013-06-30 11:07:00,69.8,57.1,29.91,NNE,29,2.0,3.0,64,0.00,,,0.00,WeatherCatV1.15B25,2013-06-30 16:07:00,
2013-06-30 11:12:00,70.1,56.5,29.91,NE,50,1.0,5.0,62,0.00,,,0.00,WeatherCatV1.15B25,2013-06-30 16:12:00,
2013-06-30 11:17:00,70.6,56.0,29.92,ENE,62,3.0,6.0,60,0.00,,,0.00,WeatherCatV1.15B25,2013-06-30 16:17:00,
2013-06-30 11:22:00,70.8,55.8,29.92,ENE,57,3.0,5.0,59,0.00,,,0.00,WeatherCatV1.15B25,2013-06-30 16:22:00,
2013-06-30 11:27:00,70.9,53.9,29.92,NNE,19,4.0,9.0,55,0.00,,,0.00,WeatherCatV1.15B25,2013-06-30 16:27:00,
2013-06-30 11:32:00,70.9,53.4,29.92,North,5,2.0,9.0,54,0.00,,,0.00,WeatherCatV1.15B25,2013-06-30 16:32:00,
2013-06-30 11:37:00,71.1,53.6,29.92,NE,34,4.0,12.0,54,0.00,,,0.00,WeatherCatV1.15B25,2013-06-30 16:37:00,
2013-06-30 11:42:00,71.3,53.8,29.92,NE,48,1.0,4.0,54,0.00,,,0.00,WeatherCatV1.15B25,2013-06-30 16:42:00,
2013-06-30 11:47:00,71.6,55.1,29.92,NNE,15,2.0,4.0,56,0.00,,,0.00,WeatherCatV1.15B25,2013-06-30 16:47:00,
2013-06-30 11:52:00,72.3,54.7,29.92,North,350,7.0,7.0,54,0.00,,,0.00,WeatherCatV1.15B25,2013-06-30 16:52:00,
2013-06-30 11:57:00,72.3,52.6,29.92,NNE,24,2.0,9.0,50,0.00,,,0.00,WeatherCatV1.15B25,2013-06-30 16:57:00,
2013-06-30 12:02:00,72.3,53.7,29.92,NE,46,3.0,5.0,52,0.00,,,0.00,WeatherCatV1.15B25,2013-06-30 17:02:00,
2013-06-30 12:07:00,72.7,53.0,29.92,NE,55,9.0,13.0,50,0.00,,,0.00,WeatherCatV1.15B25,2013-06-30 17:07:00,
2013-06-30 12:12:00,72.7,53.5,29.92,NE,55,8.0,11.0,51,0.00,,,0.00,WeatherCatV1.15B25,2013-06-30 17:12:00,
2013-06-30 12:17:00,72.7,52.4,29.92,North,355,5.0,6.0,49,0.00,,,0.00,WeatherCatV1.15B25,2013-06-30 17:17:00,
2013-06-30 12:22:00,72.8,52.0,29.92,NE,34,3.0,13.0,48,0.00,,,0.00,WeatherCatV1.15B25,2013-06-30 17:22:00,
2013-06-30 12:27:00,72.7,51.9,29.92,NNE,32,6.0,12.0,48,0.00,,,0.00,WeatherCatV1.15B25,2013-06-30 17:27:00,
2013-06-30 12:32:00,72.7,52.4,29.92,NNE,18,3.0,10.0,49,0.00,,,0.00,WeatherCatV1.15B25,2013-06-30 17:32:00,
2013-06-30 12:37:00,72.8,51.4,29.92,NE,34,2.0,6.0,47,0.00,,,0.00,WeatherCatV1.15B25,2013-06-30 17:37:00,
2013-06-30 12:42:00,73.0,52.1,29.92,NNE,32,2.0,6.0,48,0.00,,,0.00,WeatherCatV1.15B25,2013-06-30 17:42:00,
2013-06-30 12:47:00,73.3,53.0,29.92,NNE,21,3.0,6.0,49,0.00,,,0.00,WeatherCatV1.15B25,2013-06-30 17:47:00,
2013-06-30 12:52:00,73.5,49.6,29.92,NE,44,4.0,6.0,43,0.00,,,0.00,WeatherCatV1.15B25,2013-06-30 17:52:00,
2013-06-30 12:57:00,73.5,49.0,29.92,North,0,3.0,12.0,42,0.00,,,0.00,WeatherCatV1.15B25,2013-06-30 17:57:00,
2013-06-30 13:02:00,73.5,47.7,29.92,NE,44,5.0,6.0,40,0.00,,,0.00,WeatherCatV1.15B25,2013-06-30 18:02:00,
2013-06-30 13:07:00,73.7,47.9,29.92,NE,42,3.0,5.0,40,0.00,,,0.00,WeatherCatV1.15B25,2013-06-30 18:07:00,
2013-06-30 13:12:00,74.0,48.1,29.92,NNW,338,3.0,4.0,40,0.00,,,0.00,WeatherCatV1.15B25,2013-06-30 18:12:00,
2013-06-30 13:17:00,74.4,48.5,29.92,NNE,17,4.0,6.0,40,0.00,,,0.00,WeatherCatV1.15B25,2013-06-30 18:17:00,
2013-06-30 13:22:00,74.6,48.0,29.92,NNE,13,1.0,5.0,39,0.00,,,0.00,WeatherCatV1.15B25,2013-06-30 18:22:00,
2013-06-30 13:27:00,74.6,46.6,29.92,ENE,64,3.0,10.0,37,0.00,,,0.00,WeatherCatV1.15B25,2013-06-30 18:27:00,
2013-06-30 13:32:00,74.4,47.8,29.92,NNE,20,2.0,7.0,39,0.00,,,0.00,WeatherCatV1.15B25,2013-06-30 18:32:00,
2013-06-30 13:37:00,74.6,48.0,29.92,NNE,28,3.0,7.0,39,0.00,,,0.00,WeatherCatV1.15B25,2013-06-30 18:37:00,
2013-06-30 13:42:00,74.6,45.9,29.92,NE,34,3.0,10.0,36,0.00,,,0.00,WeatherCatV1.15B25,2013-06-30 18:42:00,
2013-06-30 13:47:00,74.6,47.3,29.91,NNE,17,0.0,9.0,38,0.00,,,0.00,WeatherCatV1.15B25,2013-06-30 18:47:00,
2013-06-30 13:52:00,74.7,48.8,29.91,ENE,63,7.0,8.0,40,0.00,,,0.00,WeatherCatV1.15B25,2013-06-30 18:52:00,
2013-06-30 13:57:00,75.1,49.8,29.91,NNE,19,2.0,5.0,41,0.00,,,0.00,WeatherCatV1.15B25,2013-06-30 18:57:00,
2013-06-30 14:02:00,75.1,49.8,29.91,NE,40,10.0,11.0,41,0.00,,,0.00,WeatherCatV1.15B25,2013-06-30 19:02:00,
2013-06-30 14:07:00,75.1,47.7,29.91,NE,51,3.0,4.0,38,0.00,,,0.00,WeatherCatV1.15B25,2013-06-30 19:07:00,
2013-06-30 14:12:00,75.1,48.4,29.91,North,355,5.0,11.0,39,0.00,,,0.00,WeatherCatV1.15B25,2013-06-30 19:12:00,
2013-06-30 14:17:00,75.4,48.7,29.91,NE,34,11.0,11.0,39,0.00,,,0.00,WeatherCatV1.15B25,2013-06-30 19:17:00,
2013-06-30 14:22:00,75.4,49.4,29.91,NE,43,4.0,12.0,40,0.00,,,0.00,WeatherCatV1.15B25,2013-06-30 19:22:00,
2013-06-30 14:27:00,75.8,49.7,29.91,NNE,13,5.0,13.0,40,0.00,,,0.00,WeatherCatV1.15B25,2013-06-30 19:27:00,
2013-06-30 14:32:00,75.8,49.1,29.91,ENE,78,1.0,12.0,39,0.00,,,0.00,WeatherCatV1.15B25,2013-06-30 19:32:00,
2013-06-30 14:37:00,75.8,47.7,29.91,ENE,63,10.0,12.0,37,0.00,,,0.00,WeatherCatV1.15B25,2013-06-30 19:37:00,
2013-06-30 14:42:00,76.0,47.8,29.91,NE,50,7.0,9.0,37,0.00,,,0.00,WeatherCatV1.15B25,2013-06-30 19:42:00,
2013-06-30 14:47:00,76.1,50.0,29.91,NNW,342,5.0,6.0,40,0.00,,,0.00,WeatherCatV1.15B25,2013-06-30 19:47:00,
2013-06-30 14:52:00,76.3,47.4,29.91,ENE,63,1.0,11.0,36,0.00,,,0.00,WeatherCatV1.15B25,2013-06-30 19:52:00,
2013-06-30 14:57:00,76.5,50.4,29.91,NNE,23,5.0,5.0,40,0.00,,,0.00,WeatherCatV1.15B25,2013-06-30 19:57:00,
2013-06-30 15:02:00,76.8,49.2,29.90,NNE,31,1.0,9.0,38,0.00,,,0.00,WeatherCatV1.15B25,2013-06-30 20:02:00,
2013-06-30 15:07:00,77.0,48.7,29.90,NE,48,4.0,6.0,37,0.00,,,0.00,WeatherCatV1.15B25,2013-06-30 20:07:00,
2013-06-30 15:12:00,77.0,49.4,29.90,NE,45,1.0,10.0,38,0.00,,,0.00,WeatherCatV1.15B25,2013-06-30 20:12:00,
2013-06-30 15:17:00,76.8,49.2,29.90,North,0,2.0,7.0,38,0.00,,,0.00,WeatherCatV1.15B25,2013-06-30 20:17:00,
2013-06-30 15:22:00,76.8,49.2,29.90,ENE,59,3.0,7.0,38,0.00,,,0.00,WeatherCatV1.15B25,2013-06-30 20:22:00,
2013-06-30 15:27:00,77.0,48.0,29.90,NNE,32,2.0,9.0,36,0.00,,,0.00,WeatherCatV1.15B25,2013-06-30 20:27:00,
2013-06-30 15:32:00,77.2,49.6,29.90,ENE,63,7.0,7.0,38,0.00,,,0.00,WeatherCatV1.15B25,2013-06-30 20:32:00,
2013-06-30 15:37:00,77.4,50.5,29.90,North,9,0.0,8.0,39,0.00,,,0.00,WeatherCatV1.15B25,2013-06-30 20:37:00,
2013-06-30 15:42:00,77.6,50.0,29.90,NE,44,4.0,6.0,38,0.00,,,0.00,WeatherCatV1.15B25,2013-06-30 20:42:00,
2013-06-30 15:47:00,77.6,48.5,29.90,NE,36,5.0,11.0,36,0.00,,,0.00,WeatherCatV1.15B25,2013-06-30 20:47:00,
2013-06-30 15:52:00,77.4,49.1,29.90,NE,50,2.0,4.0,37,0.00,,,0.00,WeatherCatV1.15B25,2013-06-30 20:52:00,
2013-06-30 15:57:00,77.4,49.1,29.90,NE,50,10.0,10.0,37,0.00,,,0.00,WeatherCatV1.15B25,2013-06-30 20:57:00,
2013-06-30 16:02:00,77.2,48.2,29.90,NE,55,4.0,7.0,36,0.00,,,0.00,WeatherCatV1.15B25,2013-06-30 21:02:00,
2013-06-30 16:07:00,77.4,49.8,29.90,NE,42,4.0,9.0,38,0.00,,,0.00,WeatherCatV1.15B25,2013-06-30 21:07:00,
2013-06-30 16:12:00,77.6,49.2,29.90,NNE,13,1.0,9.0,37,0.00,,,0.00,WeatherCatV1.15B25,2013-06-30 21:12:00,
2013-06-30 16:17:00,77.6,47.8,29.90,NNE,17,5.0,11.0,35,0.00,,,0.00,WeatherCatV1.15B25,2013-06-30 21:17:00,
2013-06-30 16:22:00,77.6,47.8,29.90,ENE,59,13.0,13.0,35,0.00,,,0.00,WeatherCatV1.15B25,2013-06-30 21:22:00,
2013-06-30 16:27:00,77.6,47.8,29.90,North,5,6.0,10.0,35,0.00,,,0.00,WeatherCatV1.15B25,2013-06-30 21:27:00,
2013-06-30 16:32:00,77.6,47.0,29.90,ENE,59,9.0,10.0,34,0.00,,,0.00,WeatherCatV1.15B25,2013-06-30 21:32:00,
2013-06-30 16:37:00,77.6,46.2,29.90,ENE,64,6.0,7.0,33,0.00,,,0.00,WeatherCatV1.15B25,2013-06-30 21:37:00,
2013-06-30 16:42:00,77.7,48.6,29.90,NE,51,4.0,11.0,36,0.00,,,0.00,WeatherCatV1.15B25,2013-06-30 21:42:00,
2013-06-30 16:47:00,77.7,47.1,29.90,ENE,57,10.0,10.0,34,0.00,,,0.00,WeatherCatV1.15B25,2013-06-30 21:47:00,
2013-06-30 16:52:00,77.7,47.8,29.90,NE,45,6.0,7.0,35,0.00,,,0.00,WeatherCatV1.15B25,2013-06-30 21:52:00,
2013-06-30 16:57:00,77.9,49.5,29.90,NE,43,5.0,11.0,37,0.00,,,0.00,WeatherCatV1.15B25,2013-06-30 21:57:00,
2013-06-30 17:02:00,77.9,48.0,29.90,NE,41,4.0,11.0,35,0.00,,,0.00,WeatherCatV1.15B25,2013-06-30 22:02:00,
2013-06-30 17:07:00,77.7,47.8,29.90,ENE,57,2.0,5.0,35,0.00,,,0.00,WeatherCatV1.15B25,2013-06-30 22:07:00,
2013-06-30 17:12:00,77.9,47.2,29.90,ENE,63,7.0,10.0,34,0.00,,,0.00,WeatherCatV1.15B25,2013-06-30 22:12:00,
2013-06-30 17:17:00,77.7,47.1,29.90,NE,50,6.0,10.0,34,0.00,,,0.00,WeatherCatV1.15B25,2013-06-30 22:17:00,
2013-06-30 17:22:00,77.9,48.8,29.90,ENE,64,5.0,10.0,36,0.00,,,0.00,WeatherCatV1.15B25,2013-06-30 22:22:00,
2013-06-30 17:27:00,77.9,48.8,29.90,NNE,24,2.0,6.0,36,0.00,,,0.00,WeatherCatV1.15B25,2013-06-30 22:27:00,
2013-06-30 17:32:00,77.9,48.0,29.90,NE,36,3.0,7.0,35,0.00,,,0.00,WeatherCatV1.15B25,2013-06-30 22:32:00,
2013-06-30 17:37:00,77.9,48.0,29.90,NE,56,2.0,3.0,35,0.00,,,0.00,WeatherCatV1.15B25,2013-06-30 22:37:00,
2013-06-30 17:42:00,77.6,48.5,29.90,NNE,29,1.0,8.0,36,0.00,,,0.00,WeatherCatV1.15B25,2013-06-30 22:42:00,
2013-06-30 17:47:00,77.2,48.9,29.90,NNE,17,4.0,9.0,37,0.00,,,0.00,WeatherCatV1.15B25,2013-06-30 22:47:00,
2013-06-30 17:52:00,76.8,47.8,29.90,NE,49,3.0,11.0,36,0.00,,,0.00,WeatherCatV1.15B25,2013-06-30 22:52:00,
2013-06-30 17:57:00,77.2,48.2,29.90,NNE,31,2.0,6.0,36,0.00,,,0.00,WeatherCatV1.15B25,2013-06-30 22:57:00,
2013-06-30 18:02:00,77.0,47.2,29.90,NE,41,3.0,10.0,35,0.00,,,0.00,WeatherCatV1.15B25,2013-06-30 23:02:00,
2013-06-30 18:07:00,76.7,47.7,29.90,NNE,31,0.0,4.0,36,0.00,,,0.00,WeatherCatV1.15B25,2013-06-30 23:07:00,
2013-06-30 18:12:00,76.7,47.7,29.90,North,11,0.0,6.0,36,0.00,,,0.00,WeatherCatV1.15B25,2013-06-30 23:12:00,
2013-06-30 18:17:00,76.8,47.1,29.90,NNW,340,0.0,7.0,35,0.00,,,0.00,WeatherCatV1.15B25,2013-06-30 23:17:00,
2013-06-30 18:22:00,76.8,48.5,29.90,NE,41,2.0,4.0,37,0.00,,,0.00,WeatherCatV1.15B25,2013-06-30 23:22:00,
2013-06-30 18:27:00,77.0,48.7,29.90,NE,55,5.0,7.0,37,0.00,,,0.00,WeatherCatV1.15B25,2013-06-30 23:27:00,
2013-06-30 18:32:00,77.2,49.6,29.90,NE,50,1.0,1.0,38,0.00,,,0.00,WeatherCatV1.15B25,2013-06-30 23:32:00,
2013-06-30 18:37:00,77.2,48.2,29.90,NE,53,9.0,9.0,36,0.00,,,0.00,WeatherCatV1.15B25,2013-06-30 23:37:00,
2013-06-30 18:42:00,77.0,47.2,29.90,NNE,32,5.0,6.0,35,0.00,,,0.00,WeatherCatV1.15B25,2013-06-30 23:42:00,
2013-06-30 18:47:00,76.7,47.0,29.91,NE,41,1.0,5.0,35,0.00,,,0.00,WeatherCatV1.15B25,2013-06-30 23:47:00,
2013-06-30 18:52:00,76.5,46.8,29.91,NE,46,4.0,7.0,35,0.00,,,0.00,WeatherCatV1.15B25,2013-06-30 23:52:00,
2013-06-30 18:57:00,76.5,47.5,29.91,NE,39,1.0,5.0,36,0.00,,,0.00,WeatherCatV1.15B25,2013-06-30 23:57:00,
2013-06-30 19:02:00,76.5,47.5,29.91,NE,40,3.0,6.0,36,0.00,,,0.00,WeatherCatV1.15B25,2013-07-01 00:02:00,
2013-06-30 19:07:00,76.5,46.8,29.91,NNE,24,4.0,7.0,35,0.00,,,0.00,WeatherCatV1.15B25,2013-07-01 00:07:00,
2013-06-30 19:12:00,76.5,46.8,29.91,NE,48,4.0,6.0,35,0.00,,,0.00,WeatherCatV1.15B25,2013-07-01 00:12:00,
2013-06-30 19:17:00,76.5,48.3,29.90,NE,46,0.0,4.0,37,0.00,,,0.00,WeatherCatV1.15B25,2013-07-01 00:17:00,
2013-06-30 19:22:00,76.5,47.5,29.90,NNE,26,2.0,5.0,36,0.00,,,0.00,WeatherCatV1.15B25,2013-07-01 00:22:00,
2013-06-30 19:27:00,76.3,48.8,29.90,NNE,32,1.0,6.0,38,0.00,,,0.00,WeatherCatV1.15B25,2013-07-01 00:27:00,
2013-06-30 19:32:00,76.3,48.8,29.91,NE,43,2.0,2.0,38,0.00,,,0.00,WeatherCatV1.15B25,2013-07-01 00:32:00,
2013-06-30 19:37:00,76.1,47.2,29.91,ENE,60,6.0,8.0,36,0.00,,,0.00,WeatherCatV1.15B25,2013-07-01 00:37:00,
2013-06-30 19:42:00,76.0,47.1,29.91,ENE,58,4.0,6.0,36,0.00,,,0.00,WeatherCatV1.15B25,2013-07-01 00:42:00,
2013-06-30 19:47:00,75.8,46.9,29.91,NE,53,2.0,5.0,36,0.00,,,0.00,WeatherCatV1.15B25,2013-07-01 00:47:00,
2013-06-30 19:52:00,75.6,47.5,29.91,NE,47,2.0,4.0,37,0.00,,,0.00,WeatherCatV1.15B25,2013-07-01 00:52:00,
2013-06-30 19:57:00,75.4,47.3,29.91,NE,44,2.0,4.0,37,0.00,,,0.00,WeatherCatV1.15B25,2013-07-01 00:57:00,
2013-06-30 20:02:00,75.1,47.0,29.91,NE,42,0.0,6.0,37,0.00,,,0.00,WeatherCatV1.15B25,2013-07-01 01:02:00,
2013-06-30 20:07:00,74.9,46.9,29.91,NE,50,0.0,4.0,37,0.00,,,0.00,WeatherCatV1.15B25,2013-07-01 01:07:00,
2013-06-30 20:12:00,74.7,46.7,29.91,NE,50,1.0,4.0,37,0.00,,,0.00,WeatherCatV1.15B25,2013-07-01 01:12:00,
2013-06-30 20:17:00,74.7,46.7,29.91,NE,47,0.0,2.0,37,0.00,,,0.00,WeatherCatV1.15B25,2013-07-01 01:17:00,
2013-06-30 20:22:00,74.4,46.4,29.91,NE,40,1.0,4.0,37,0.00,,,0.00,WeatherCatV1.15B25,2013-07-01 01:22:00,
2013-06-30 20:27:00,74.2,46.2,29.91,NE,38,0.0,2.0,37,0.00,,,0.00,WeatherCatV1.15B25,2013-07-01 01:27:00,
2013-06-30 20:32:00,74.0,46.8,29.91,NE,37,3.0,3.0,38,0.00,,,0.00,WeatherCatV1.15B25,2013-07-01 01:32:00,
2013-06-30 20:37:00,73.9,46.7,29.91,NE,38,0.0,1.0,38,0.00,,,0.00,WeatherCatV1.15B25,2013-07-01 01:37:00,
2013-06-30 20:42:00,73.7,47.2,29.91,NE,37,0.0,1.0,39,0.00,,,0.00,WeatherCatV1.15B25,2013-07-01 01:42:00,
2013-06-30 20:47:00,73.5,47.7,29.92,NE,37,0.0,0.0,40,0.00,,,0.00,WeatherCatV1.15B25,2013-07-01 01:47:00,
2013-06-30 20:52:00,73.3,47.5,29.92,NE,38,0.0,0.0,40,0.00,,,0.00,WeatherCatV1.15B25,2013-07-01 01:52:00,
2013-06-30 20:57:00,73.0,47.2,29.92,NE,37,0.0,0.0,40,0.00,,,0.00,WeatherCatV1.15B25,2013-07-01 01:57:00,
2013-06-30 21:02:00,72.8,47.7,29.92,NE,38,0.0,1.0,41,0.00,,,0.00,WeatherCatV1.15B25,2013-07-01 02:02:00,
2013-06-30 21:07:00,72.5,48.1,29.92,NE,38,0.0,0.0,42,0.00,,,0.00,WeatherCatV1.15B25,2013-07-01 02:07:00,
2013-06-30 21:12:00,72.3,47.9,29.92,NE,38,0.0,0.0,42,0.00,,,0.00,WeatherCatV1.15B25,2013-07-01 02:12:00,
2013-06-30 21:17:00,72.0,48.3,29.92,NE,38,0.0,0.0,43,0.00,,,0.00,WeatherCatV1.15B25,2013-07-01 02:17:00,
2013-06-30 21:22:00,71.6,48.5,29.92,NE,38,0.0,0.0,44,0.00,,,0.00,WeatherCatV1.15B25,2013-07-01 02:22:00,
2013-06-30 21:27:00,71.1,49.8,29.92,NE,38,0.0,0.0,47,0.00,,,0.00,WeatherCatV1.15B25,2013-07-01 02:27:00,
2013-06-30 21:32:00,70.4,49.2,29.93,NE,38,0.0,0.0,47,0.00,,,0.00,WeatherCatV1.15B25,2013-07-01 02:32:00,
2013-06-30 21:37:00,70.1,48.9,29.93,NE,38,0.0,0.0,47,0.00,,,0.00,WeatherCatV1.15B25,2013-07-01 02:37:00,
2013-06-30 21:42:00,69.8,49.2,29.93,NE,38,0.0,0.0,48,0.00,,,0.00,WeatherCatV1.15B25,2013-07-01 02:42:00,
2013-06-30 21:47:00,69.6,49.0,29.93,NE,38,0.0,0.0,48,0.00,,,0.00,WeatherCatV1.15B25,2013-07-01 02:47:00,
2013-06-30 21:52:00,69.4,49.4,29.93,NE,38,0.0,0.0,49,0.00,,,0.00,WeatherCatV1.15B25,2013-07-01 02:52:00,
2013-06-30 21:57:00,69.4,49.9,29.93,NE,38,0.0,0.0,50,0.00,,,0.00,WeatherCatV1.15B25,2013-07-01 02:57:00,
2013-06-30 22:02:00,69.1,50.2,29.94,NE,38,0.0,0.0,51,0.00,,,0.00,WeatherCatV1.15B25,2013-07-01 03:02:00,
2013-06-30 22:07:00,68.6,50.8,29.94,NE,38,0.0,0.0,53,0.00,,,0.00,WeatherCatV1.15B25,2013-07-01 03:07:00,
2013-06-30 22:12:00,67.9,50.6,29.94,NE,38,0.0,0.0,54,0.00,,,0.00,WeatherCatV1.15B25,2013-07-01 03:12:00,
2013-06-30 22:17:00,67.4,50.2,29.95,NE,38,0.0,0.0,54,0.00,,,0.00,WeatherCatV1.15B25,2013-07-01 03:17:00,
2013-06-30 22:22:00,67.1,49.9,29.95,NE,38,0.0,0.0,54,0.00,,,0.00,WeatherCatV1.15B25,2013-07-01 03:22:00,
2013-06-30 22:27:00,66.8,50.1,29.95,NE,38,0.0,0.0,55,0.00,,,0.00,WeatherCatV1.15B25,2013-07-01 03:27:00,
2013-06-30 22:32:00,66.6,50.4,29.95,NE,38,0.0,0.0,56,0.00,,,0.00,WeatherCatV1.15B25,2013-07-01 03:32:00,
2013-06-30 22:37:00,66.4,50.2,29.95,NE,38,0.0,0.0,56,0.00,,,0.00,WeatherCatV1.15B25,2013-07-01 03:37:00,
2013-06-30 22:42:00,66.3,50.1,29.95,NE,38,0.0,0.0,56,0.00,,,0.00,WeatherCatV1.15B25,2013-07-01 03:42:00,
2013-06-30 22:47:00,66.1,49.9,29.95,NE,38,0.0,0.0,56,0.00,,,0.00,WeatherCatV1.15B25,2013-07-01 03:47:00,
2013-06-30 22:52:00,66.0,50.8,29.95,NE,38,0.0,0.0,58,0.00,,,0.00,WeatherCatV1.15B25,2013-07-01 03:52:00,
2013-06-30 22:57:00,65.8,50.6,29.95,NE,38,0.0,0.0,58,0.00,,,0.00,WeatherCatV1.15B25,2013-07-01 03:57:00,
2013-06-30 23:01:00,65.8,50.6,29.95,NE,38,0.0,0.0,58,0.00,,,0.00,WeatherCatV1.15B25,2013-07-01 04:01:00,
2013-06-30 23:06:00,65.6,50.9,29.95,NE,38,0.0,0.0,59,0.00,,,0.00,WeatherCatV1.15B25,2013-07-01 04:06:00,
2013-06-30 23:11:00,65.6,50.4,29.95,NE,38,0.0,0.0,58,0.00,,,0.00,WeatherCatV1.15B25,2013-07-01 04:11:00,
2013-06-30 23:16:00,65.5,50.3,29.95,NE,38,0.0,0.0,58,0.00,,,0.00,WeatherCatV1.15B25,2013-07-01 04:16:00,
2013-06-30 23:21:00,65.5,51.2,29.95,NE,38,0.0,0.0,60,0.00,,,0.00,WeatherCatV1.15B25,2013-07-01 04:21:00,
2013-06-30 23:26:00,65.3,50.6,29.95,NE,38,0.0,0.0,59,0.00,,,0.00,WeatherCatV1.15B25,2013-07-01 04:26:00,
2013-06-30 23:31:00,65.0,50.3,29.96,NE,38,0.0,0.0,59,0.00,,,0.00,WeatherCatV1.15B25,2013-07-01 04:31:00,
2013-06-30 23:36:00,64.7,50.5,29.96,NE,38,0.0,0.0,60,0.00,,,0.00,WeatherCatV1.15B25,2013-07-01 04:36:00,
2013-06-30 23:41:00,64.3,50.6,29.96,NE,38,0.0,0.0,61,0.00,,,0.00,WeatherCatV1.15B25,2013-07-01 04:41:00,
2013-06-30 23:46:00,64.2,50.9,29.96,NE,38,0.0,0.0,62,0.00,,,0.00,WeatherCatV1.15B25,2013-07-01 04:46:00,
2013-06-30 23:51:00,64.0,50.7,29.96,NE,38,0.0,0.0,62,0.00,,,0.00,WeatherCatV1.15B25,2013-07-01 04:51:00,
2013-06-30 23:56:00,63.9,50.6,29.96,NE,38,0.0,0.0,62,0.00,,,0.00,WeatherCatV1.15B25,2013-07-01 04:56:00,